| time (UTC) | temp C | wind direction | speed KPH | gust KPH | rain 1hr cm | rain 24hr cm | rain mn cm | humidity % | barometer mb |
| 20260504210005 | 7 | 270 | 8.0 | 9.7 | 0.00 | 0.00 | 0.00 | 97 | 1021.2 |
| 20260504204505 | 7 | 270 | 8.0 | 9.7 | 0.00 | 0.00 | 0.00 | 97 | 1021.2 |
| 20260504203005 | 7 | 270 | 9.7 | 9.7 | 0.00 | 0.00 | 0.00 | 96 | 1021.1 |
| 20260504201505 | 7 | 270 | 9.7 | 9.7 | 0.00 | 0.00 | 0.00 | 96 | 1021.1 |
| 20260504200006 | 7 | 270 | 8.0 | 8.0 | 0.00 | 0.00 | 0.00 | 96 | 1020.9 |
| 20260504194505 | 7 | 270 | 8.0 | 8.0 | 0.00 | 0.00 | 0.00 | 96 | 1020.9 |
| 20260504193005 | 8 | 270 | 8.0 | 8.0 | 0.00 | 0.00 | 0.00 | 96 | 1020.6 |
| 20260504191505 | 8 | 270 | 8.0 | 8.0 | 0.00 | 0.00 | 0.00 | 96 | 1020.6 |
| 20260504190005 | 8 | 270 | 9.7 | 11.3 | 0.00 | 0.00 | 0.00 | 95 | 1020.4 |
| 20260504184505 | 8 | 270 | 9.7 | 11.3 | 0.00 | 0.00 | 0.00 | 95 | 1020.4 |
| 20260504183005 | 8 | 270 | 8.0 | 9.7 | 0.00 | 0.00 | 0.00 | 95 | 1020.4 |
| 20260504181505 | 8 | 270 | 8.0 | 9.7 | 0.00 | 0.00 | 0.00 | 95 | 1020.4 |
| 20260504180005 | 9 | 292 | 11.3 | 12.9 | 0.00 | 0.00 | 0.00 | 94 | 1020.3 |
| 20260504174505 | 9 | 292 | 11.3 | 12.9 | 0.00 | 0.00 | 0.00 | 94 | 1020.3 |
| 20260504173005 | 8 | 270 | 9.7 | 11.3 | 0.00 | 0.00 | 0.00 | 94 | 1020.4 |
| 20260504171506 | 8 | 270 | 9.7 | 11.3 | 0.00 | 0.00 | 0.00 | 94 | 1020.4 |
| 20260504081505 | 17 | 315 | 14.5 | 20.9 | 0.00 | 0.00 | 0.00 | 60 | 1015.7 |
| 20260504050005 | 20 | 270 | 32.2 | 45.1 | 0.00 | 0.00 | 0.00 | 51 | 1013.8 |
| 20260504044505 | 20 | 270 | 32.2 | 45.1 | 0.00 | 0.00 | 0.00 | 51 | 1013.8 |
| 20260504043005 | 21 | 270 | 27.4 | 40.2 | 0.00 | 0.00 | 0.00 | 50 | 1013.6 |
| 20260504041505 | 21 | 270 | 27.4 | 40.2 | 0.00 | 0.00 | 0.00 | 50 | 1013.6 |
| 20260504040005 | 19 | 292 | 27.4 | 46.7 | 0.00 | 0.00 | 0.00 | 53 | 1013.8 |
| 20260504034506 | 19 | 292 | 27.4 | 46.7 | 0.00 | 0.00 | 0.00 | 53 | 1013.8 |
| 20260504033005 | 20 | 292 | 27.4 | 38.6 | 0.00 | 0.00 | 0.00 | 52 | 1014.2 |
| 20260504031505 | 20 | 292 | 27.4 | 38.6 | 0.00 | 0.00 | 0.00 | 52 | 1014.2 |
| 20260504030005 | 18 | 292 | 29.0 | 38.6 | 0.00 | 0.00 | 0.00 | 58 | 1014.6 |
| 20260504024505 | 18 | 292 | 29.0 | 38.6 | 0.00 | 0.00 | 0.00 | 58 | 1014.6 |
| 20260504023005 | 19 | 292 | 25.7 | 37.0 | 0.00 | 0.00 | 0.00 | 56 | 1014.7 |
| 20260504021505 | 19 | 292 | 25.7 | 37.0 | 0.00 | 0.00 | 0.00 | 56 | 1014.7 |
| 20260504020004 | 18 | 292 | 27.4 | 35.4 | 0.00 | 0.00 | 0.00 | 59 | 1015.0 |
| 20260504014505 | 18 | 292 | 27.4 | 35.4 | 0.00 | 0.00 | 0.00 | 59 | 1015.0 |
| 20260504013005 | 17 | 292 | 25.7 | 35.4 | 0.00 | 0.00 | 0.00 | 62 | 1015.0 |
| 20260504011505 | 17 | 292 | 25.7 | 35.4 | 0.00 | 0.00 | 0.00 | 62 | 1015.0 |
| 20260504010005 | 16 | 292 | 29.0 | 38.6 | 0.00 | 0.00 | 0.00 | 63 | 1014.8 |
| 20260504004505 | 16 | 292 | 29.0 | 38.6 | 0.00 | 0.00 | 0.00 | 63 | 1014.8 |
| 20260504003005 | 16 | 315 | 24.1 | 35.4 | 0.00 | 0.00 | 0.00 | 65 | 1014.6 |
| 20260504001505 | 16 | 315 | 24.1 | 35.4 | 0.00 | 0.00 | 0.00 | 65 | 1014.6 |
| 20260504000006 | 15 | 315 | 29.0 | 45.1 | 0.00 | 0.00 | 0.03 | 68 | 1014.5 |
| 20260503234505 | 15 | 315 | 29.0 | 45.1 | 0.00 | 0.00 | 0.03 | 68 | 1014.5 |
| 20260503233005 | 14 | 315 | 25.7 | 33.8 | 0.00 | 0.00 | 0.03 | 70 | 1014.3 |
| 20260503231505 | 14 | 315 | 25.7 | 33.8 | 0.00 | 0.00 | 0.03 | 70 | 1014.3 |
| 20260503230006 | 13 | 337 | 20.9 | 27.4 | 0.00 | 0.00 | 0.03 | 75 | 1014.1 |
| 20260503224505 | 13 | 337 | 20.9 | 27.4 | 0.00 | 0.00 | 0.03 | 75 | 1014.1 |
| 20260503223005 | 11 | 337 | 22.5 | 27.4 | 0.00 | 0.00 | 0.03 | 80 | 1013.9 |
| 20260503221505 | 11 | 337 | 22.5 | 27.4 | 0.00 | 0.00 | 0.03 | 80 | 1013.9 |
| 20260503220005 | 11 | 337 | 24.1 | 32.2 | 0.00 | 0.00 | 0.03 | 82 | 1013.6 |
| 20260503214505 | 11 | 337 | 24.1 | 32.2 | 0.00 | 0.00 | 0.03 | 82 | 1013.6 |
| 20260503213005 | 11 | 337 | 22.5 | 32.2 | 0.00 | 0.00 | 0.03 | 83 | 1013.4 |
| 20260503211505 | 11 | 337 | 22.5 | 32.2 | 0.00 | 0.00 | 0.03 | 83 | 1013.4 |